This is the latest recevied weather packets stored in our database for station/object KE8AFF-13. If no packets are shown the sender has not sent any weather packets the latest 10 day(s).
| Time | Temp. | Humidity | Pressure | Rain* | Wind** | Luminosity | Snow |
|---|---|---|---|---|---|---|---|
| 1778080772 | 11.11° C | 73% | 1011.9 hPa | 0 mm | - | 769 W/m² | - |
| 1778080469 | 11.11° C | 73% | 1012.3 hPa | 0 mm | - | 768 W/m² | - |
| 1778080167 | 10.56° C | 73% | 1012 hPa | 0 mm | - | 766 W/m² | - |
| 1778079862 | 11.11° C | 72% | 1011.8 hPa | 0 mm | - | 770 W/m² | - |
| 1778079560 | 11.11° C | 73% | 1011.9 hPa | 0 mm | - | 773 W/m² | - |
| 1778079256 | 10.56° C | 75% | 1011.7 hPa | 0 mm | - | 779 W/m² | - |
| 1778078953 | 10.56° C | 74% | 1011.7 hPa | 0 mm | - | 772 W/m² | - |
| 1778078650 | 10° C | 76% | 1011.9 hPa | 0 mm | - | 744 W/m² | - |
| 1778078349 | 10.56° C | 76% | 1011.8 hPa | 0 mm | - | 724 W/m² | - |
| 1778078045 | 10° C | 76% | 1011.6 hPa | 0 mm | - | 697 W/m² | - |
| 1778077743 | 10° C | 78% | 1011.6 hPa | 0 mm | - | 712 W/m² | - |
| 1778077441 | 10° C | 78% | 1011.7 hPa | 0 mm | - | 690 W/m² | - |
| 1778077139 | 9.44° C | 79% | 1011.3 hPa | 0 mm | - | 547 W/m² | - |
| 1778076836 | 9.44° C | 78% | 1011.4 hPa | 0 mm | - | 645 W/m² | - |
| 1778076534 | 9.44° C | 79% | 1011.2 hPa | 0 mm | - | 646 W/m² | - |
| 1778076231 | 9.44° C | 79% | 1011.3 hPa | 0 mm | - | 562 W/m² | - |
| 1778075928 | 8.89° C | 81% | 1011.2 hPa | 0 mm | - | 573 W/m² | - |
| 1778075625 | 8.89° C | 81% | 1011.2 hPa | 0 mm | - | 363 W/m² | - |
| 1778075321 | 8.33° C | 82% | 1011.2 hPa | 0 mm | - | 327 W/m² | - |
| 1778075018 | 8.33° C | 83% | 1011.5 hPa | 0 mm | - | 264 W/m² | - |
| 1778074715 | 8.33° C | 85% | 1011.6 hPa | 0 mm | - | 219 W/m² | - |
| 1778074411 | 8.33° C | 85% | 1011.6 hPa | 0 mm | - | 186 W/m² | - |
| 1778074108 | 7.78° C | 86% | 1011.6 hPa | 0 mm | - | 161 W/m² | - |
| 1778073805 | 7.78° C | 87% | 1011.5 hPa | 0 mm | - | 157 W/m² | - |
| 1778073503 | 7.78° C | 88% | 1011.5 hPa | 0 mm | - | 150 W/m² | - |
* Rain latest hour (hover to see other rain measurements)
** Current wind speed in m/s (hover to see current wind gust speed)